Regional Weather Roundup
Issued by NWS Northern Indiana

Home | Current Version | Previous Version | Text Only | Print | Product List | Glossary On
Versions: 1 2 3 4 5 6 7 8 9 10 11 12 13 14 15 16 17 18 19 20 21 22 23 24 25 26 27 28 29 30 31 32 33 34 35 36 37 38 39 40 41 42 43 44 45 46 47 48 49 50
577
ASUS43 KIWX 222110
RWRIWX

KIWX WEATHER ROUNDUP
NATIONAL WEATHER SERVICE NORTHERN INDIANA
500 PM EDT SUN OCT 22 2017

NOTE: "FAIR" INDICATES FEW OR NO CLOUDS BELOW 12,000 FEET WITH NO
SIGNIFICANT WEATHER AND/OR OBSTRUCTIONS TO VISIBILITY.

* THESE STATIONS ARE NOT UNDER NWS QUALITY CONTROL. THEY ALSO MAY NOT
  REPORT WEATHER SUCH AS PRECIPITATION OR FOG.

INZ001>027-222200-
NORTHERN INDIANA

CITY           SKY/WX    TMP DP  RH WIND       PRES   REMARKS
GARY*          CLOUDY    72  61  68 S17G29    29.96R
VALPARAISO     CLOUDY    72  61  68 SW16G24   29.98R
MICHIGAN CITY* HVY RAIN  68  61  77 SW12G22   29.98R
LAPORTE*       CLOUDY    71  59  65 SW9       29.98R
KNOX*          CLOUDY    73  57  56 S13G24    29.97R
SOUTH BEND     CLOUDY    72  59  63 S9        29.98R
ELKHART*       PTSUNNY   73  57  56 S14G21    29.98S
GOSHEN         CLOUDY    74  56  53 S9        29.99R
MONTICELLO*    CLOUDY    75  57  53 S13G20    29.97S
LOGANSPORT*    PTSUNNY   75  59  57 S16G22    29.99F
WARSAW*        CLOUDY    73  59  60 S5        30.00S
AUBURN*        MOSUNNY   77  54  44 S5        30.03R
FORT WAYNE     PTSUNNY   77  56  48 S16       30.02S
HUNTINGTON*    PTSUNNY   76  56  48 S10G18    30.02R
MARION*        CLOUDY    75  55  50 S21G26    30.04R

$$
INZ028>050-222200-
CENTRAL INDIANA

CITY           SKY/WX    TMP DP  RH WIND       PRES   REMARKS
LAFAYETTE      LGT RAIN  73  60  63 SW12      29.97S
KOKOMO*        CLOUDY    75  59  57 S15       30.02S
MUNCIE*        SUNNY     77  56  48 S15G22    30.04R
INDIANAPOLIS   CLOUDY    76  58  53 S18       30.02S

$$
MIZ043>046-050>051-056>058-064>065-071>073-077>080-222200-
SOUTHWEST LOWER MICHIGAN

CITY           SKY/WX    TMP DP  RH WIND       PRES   REMARKS
BATTLE CREEK   CLOUDY    74  59  59 S9        29.99S
BENTON HARBOR  CLOUDY    73  58  59 S6        29.95S
COLDWATER*     MOSUNNY   74  54  49 S12       30.01R
HILLSDALE*     MOSUNNY   73  54  49 S14G23    30.02F
HOLLAND        LGT RAIN  70  61  73 S15G21    29.96R
GRAND RAPIDS   CLOUDY    73  60  63 S14G24    29.96R
KALAMAZOO      CLOUDY    73  57  57 S16G23    29.99R
STURGIS*       CLOUDY    73  59  61 S9G16     29.99S
THREE RIVERS*  LGT RAIN  74  59  59 S12G17    30.00R

$$
OHZ001>008-015>018-024>025-222200-
NORTHWEST OHIO

CITY           SKY/WX    TMP DP  RH WIND       PRES   REMARKS
WAUSEON*       FAIR      79  55  44 S20       30.03F
DEFIANCE       SUNNY     77  54  44 S16       30.03S
FINDLAY        LGT RAIN  79  51  37 S17       30.07S
TOLEDO EXPRESS SUNNY     79  56  45 S14G24    30.03F
TOLEDO METCALF SUNNY     79  53  40 S18G28    30.06S
LIMA           SUNNY     75  53  46 S15G23    30.08S

$$
AND FOR LAKE MICHIGAN COASTAL AND OPEN LAKE BUOY OBSERVATIONS

STATION/POSITION TEMP    WIND        PRES    VSBY  WAVE
                 AIR SEA DIR/SP/G                  HT/PER
                 (F)     (DEG/KT/KT) (MB)    (MI)  (FT/S)
CALUMET HARBOR    56     290/ 15/ 18 1014.6R
MICHIGAN CITY     71     190/ 12/ 14   N/A
BURNS HARBOR      71     210/ 20/ 26 1014.6R
SAINT JOSEPH      72     190/  5/ 10 1014.9
SOUTH LAKE BUOY   54 60  360/ 25/ 29 1014.6R         3/ 5
4 MI NW BRIDGMAN  66 60  210/  8/ 12 1014.2          3/ 4
MICHIGAN CITY     67 58  200/ 16/ 23   N/A           2/ 3

$$
&&




USA.gov is the U.S. government's official web portal to all federal, state and local government web resources and services.